Regional Weather Roundup
Issued by NWS Sterling, VA

Home | Current Version | Previous Version | Graphics & Text | Print | Product List | Glossary On
Versions: 1 2 3 4 5 6 7 8 9 10 11 12 13 14 15 16 17 18 19 20 21 22 23 24 25 26 27 28 29 30 31 32 33 34 35 36 37 38 39 40 41 42 43 44 45 46 47 48 49 50
000
ASUS41 KLWX 222211
RWRLWX

REGIONAL WEATHER ROUNDUP
NATIONAL WEATHER SERVICE BALTIMORE MD/WASHINGTON DC
600 PM EDT SAT APR 22 2017

Note: "FAIR" indicates few or no clouds below 12,000 feet
with no significant weather and/or obstructions to visibility.
 TC=TEMPERATURE CELSIUS

 * =Non NWS site. Station does not report precipitation (e.g. rain,
    snow, etc.), thunder, or fog.

DCZ001-MDZ009-015-VAZ040>042-051-053>054-222300-
WASHINGTON METRO

CITY           SKY/WX    TMP DP  RH WIND       PRES   REMARKS
WASHINGTON NAT LGT RAIN  55  52  89 N12       29.99R
DULLES         LGT RAIN  51  47  86 N10       29.99S FOG
QUANTICO       LGT RAIN  53  53 100 N13       30.00R
COLLEGE PARK*  CLOUDY    52  49  90 N6        29.99R
LEESBURG*      LGT RAIN  52  52 100 N3        30.01S
MANASSAS*      LGT RAIN  51  49  92 N10       30.00R

$$

MDZ006>007-011-014-222300-
BALTIMORE METRO

CITY           SKY/WX    TMP DP  RH WIND       PRES   REMARKS
BWI AIRPORT    LGT RAIN  53  52  96 N5        29.99R FOG
MD SCIENCE CTR   N/A     54  49  83 MISG      30.00R
MARTIN STATE   LGT RAIN  54  54 100 NW6       30.01R FOG
ANNAPOLIS      LGT RAIN  56  53  90 N10       29.98R FOG
FORT MEADE*    CLOUDY    52  50  93 N6        30.01S

$$

MDZ012-015-019>023-222300-
MARYLAND EASTERN SHORE

CITY           SKY/WX    TMP DP  RH WIND       PRES   REMARKS
OCEAN CITY     CLOUDY    53  49  86 NE13      29.94S
SALISBURY      CLOUDY    55  53  93 NE12      29.94R
BAY BRIDGE AP* CLOUDY    54  52  94 N6        29.99R FOG
CAMBRIDGE*     PTSUNNY   55  54  94 N13       29.96R FOG
EASTON*        CLOUDY    54  50  87 N8        30.01R FOG

$$

MDZ017>025-222300-
SOUTHERN MARYLAND

CITY           SKY/WX    TMP DP  RH WIND       PRES   REMARKS
PATUXENT RIVER LGT RAIN  55  55 100 N16       29.96R FOG
ST INIGOES     HVY RAIN  55  53  93 N8        29.95R FOG
LEONARDTOWN*   CLOUDY    54  52  94 N3        29.98R

$$

MDZ003>005-222300-
NORTH CENTRAL MARYLAND

CITY           SKY/WX    TMP DP  RH WIND       PRES   REMARKS
FREDERICK*     CLOUDY    54  54 100 CALM      30.03R
HAGERSTOWN APT LGT RAIN  52  46  80 NW3       29.99S
WESTMINSTER*   RAIN      52  48  87 N3        29.99F

$$

MDZ501>502-222300-
WESTERN MARYLAND

CITY           SKY/WX    TMP DP  RH WIND       PRES   REMARKS
OAKLAND*       CLOUDY    41  36  81 N6        29.99S
CUMBERLAND*    CLOUDY    52  46  82 CALM      30.05R

$$

VAZ025>031-222300-
SHENANDOAH VALLEY

CITY           SKY/WX    TMP DP  RH WIND       PRES   REMARKS
WINCHESTER*    LGT RAIN  48  46  93 CALM      29.99F
FRONT ROYAL*   CLOUDY    50  48  93 CALM      29.98F
LURAY*         CLOUDY    50  48  93 E3        29.98F
NEW MARKET*    CLOUDY    51  48  89 NE5       29.97F
STAUNTON*      CLOUDY    49  47  95 NE10      29.99S
WAYNESBORO*    CLOUDY    49  49 100 N7        29.97R

$$

WVZ021-048>050-054>055-222300-
EASTERN WEST VIRGINIA PANHANDLE

CITY           SKY/WX    TMP DP  RH WIND       PRES   REMARKS
MARTINSBURG    CLOUDY    51  46  83 N3        30.00R
PETERSBURG*    CLOUDY    53  49  88 SE3       30.01R

$$

VAZ036>039-050-222300-
CENTRAL FOOTHILLS

CITY           SKY/WX    TMP DP  RH WIND       PRES   REMARKS
CHARLOTTESVILL LGT RAIN  53  50  89 NE9       29.97R FOG
CULPEPER*      LGT RAIN  51  49  93 N7        30.01R
ORANGE*        DRIZZLE   50  46  87 NE9       29.98S
GORDONSVILLE*  CLOUDY    50  49  97 NE7       29.98R
WARRENTON*     LGT RAIN  52  47  84 N6        29.98F

$$

VAZ055>057-222300-
NORTH AND CENTRAL PIEDMONT

CITY           SKY/WX    TMP DP  RH WIND       PRES   REMARKS
FREDERICKSBRG* RAIN      53  53 100 N9        29.98R
STAFFORD*      RAIN      51  51 100 N12       30.02R

$$

NCZ024-NYZ072-PAZ021-071-VAZ022-071-222300-
OTHER REGIONAL OBSERVATIONS

CITY           SKY/WX    TMP DP  RH WIND       PRES   REMARKS
NEW YORK CITY  CLOUDY    53  51  93 CALM      29.97S
PHILADELPHIA   CLOUDY    54  49  83 N7        29.97S
PITTSBURGH     PTSUNNY   54  37  52 N10G18    30.03S
ROANOKE        CLOUDY    58  56  93 E8        29.92R
RICHMOND       LGT RAIN  56  55  97 N18       29.93R
RALEIGH        MOSUNNY   80  62  54 W12       29.80S

$$

ANZ530>537-222300-
MARINE OBSERVATIONS

STATION/POSITION TIME  TEMP    WIND        PRES
                       AIR SEA DIR/SP/G
                 (UTC) (F)     (DEG/KT/KT) (MB)
THOMAS PT LIGHT  2200   54 60   10/ 14/ 15   N/A
BALT KEY BRIDGE  2148   53     340/ 13/ 15 1015.4R
COVE POINT       2148   55      40/ 18/ 21 1014.7R
LEWISETTA        2148   57 66   30/ 10/ 14 1013.7R
SOLOMONS ISLAND  2148   55 62   10/  9/ 13   N/A
PINEY POINT      2148           30/ 10/ 14   N/A

$$




USA.gov is the U.S. government's official web portal to all federal, state and local government web resources and services.